JAF2JW EBOS-LEMG

Flight info

Callsign JAF2JW
Flight time N/A
Altitude 37000
Route KOK UL607 FERDI UY50 CIV N872 MEDIL DCT KOVIN DCT DUCRA UM728 RESMI UN857 DISAK DCT ARKIP DCT ARNAV DCT LMG DCT UVELI/N0456F390 DCT OSMOB DCT ARVID DCT PPN DCT NOLSA N857 VASUM DCT BANEV DCT BAN DCT GOTOR DCT KAMPO DCT MONTO DCT CRISA N864 VULPE
Aircraft B737/M-SDE2E3FGHIRWXY/LB1

Departure

Time N/A
Airport Ostend-Bruges International Airport (EBOS)

Arrival

Time 2026-05-03 21:24
Airport Málaga-Costa del Sol Airport (LEMG)
Time Latitude Longitude Altitude Speed Heading
2026-05-03 20:15 42.75055 -1.69070 38984 ft 416 kts 210°
2026-05-03 20:15 42.69878 -1.72576 38994 ft 416 kts 210°
2026-05-03 20:16 42.64694 -1.76054 38989 ft 416 kts 209°
2026-05-03 20:16 42.59506 -1.79531 38969 ft 416 kts 210°
2026-05-03 20:17 42.54322 -1.83002 38979 ft 415 kts 210°
2026-05-03 20:17 42.49141 -1.86467 38971 ft 415 kts 210°
2026-05-03 20:18 42.43957 -1.89927 38965 ft 415 kts 210°
2026-05-03 20:18 42.38778 -1.93381 38946 ft 415 kts 210°
2026-05-03 20:19 42.33594 -1.96835 38960 ft 415 kts 210°
2026-05-03 20:19 42.28407 -2.00293 38961 ft 416 kts 210°
2026-05-03 20:20 42.23217 -2.03743 38968 ft 416 kts 210°
2026-05-03 20:20 42.18015 -2.07187 38965 ft 417 kts 210°
2026-05-03 20:21 42.12812 -2.10627 38968 ft 417 kts 210°
2026-05-03 20:21 42.07596 -2.14071 38967 ft 418 kts 210°
2026-05-03 20:22 42.02412 -2.17488 38979 ft 417 kts 210°
2026-05-03 20:22 41.97198 -2.20918 38976 ft 418 kts 210°
2026-05-03 20:23 41.91981 -2.24344 38974 ft 417 kts 210°
2026-05-03 20:23 41.86763 -2.27765 38979 ft 417 kts 210°
2026-05-03 20:24 41.81546 -2.31179 38992 ft 418 kts 209°
2026-05-03 20:24 41.76312 -2.34597 38987 ft 418 kts 209°
2026-05-03 20:25 41.71087 -2.38004 38977 ft 418 kts 210°
2026-05-03 20:25 41.65858 -2.41407 38983 ft 417 kts 210°
2026-05-03 20:26 41.60634 -2.44801 38989 ft 417 kts 210°
2026-05-03 20:26 41.55416 -2.48187 38982 ft 417 kts 210°
2026-05-03 20:27 41.50228 -2.51545 38981 ft 417 kts 210°
2026-05-03 20:27 41.44968 -2.54932 38987 ft 417 kts 210°
2026-05-03 20:28 41.39777 -2.58267 38978 ft 417 kts 210°
2026-05-03 20:28 41.34539 -2.61627 38995 ft 417 kts 210°
2026-05-03 20:29 41.29570 -2.65494 38991 ft 412 kts 218°
2026-05-03 20:29 41.24862 -2.69874 38994 ft 413 kts 218°
2026-05-03 20:30 41.20154 -2.74243 38986 ft 413 kts 218°
2026-05-03 20:30 41.15438 -2.78585 38986 ft 413 kts 218°
2026-05-03 20:31 41.10711 -2.82917 38987 ft 413 kts 218°
2026-05-03 20:31 41.05988 -2.87235 38974 ft 412 kts 218°
2026-05-03 20:32 41.01258 -2.91550 38979 ft 412 kts 218°
2026-05-03 20:32 40.96536 -2.95851 38987 ft 412 kts 218°
2026-05-03 20:33 40.91808 -3.00151 38983 ft 413 kts 218°
2026-05-03 20:33 40.87073 -3.04448 38977 ft 413 kts 218°
2026-05-03 20:34 40.82346 -3.08732 38980 ft 413 kts 218°
2026-05-03 20:34 40.77608 -3.13017 38982 ft 413 kts 218°
2026-05-03 20:35 40.72870 -3.17295 38979 ft 413 kts 218°
2026-05-03 20:35 40.68135 -3.21563 38974 ft 412 kts 218°
2026-05-03 20:36 40.63394 -3.25829 38971 ft 412 kts 218°
2026-05-03 20:36 40.58660 -3.30080 38970 ft 412 kts 218°
2026-05-03 20:37 40.53917 -3.34334 38968 ft 412 kts 218°
2026-05-03 20:37 40.49175 -3.38578 38968 ft 413 kts 218°
2026-05-03 20:38 40.44451 -3.42799 38967 ft 413 kts 218°
2026-05-03 20:38 40.39701 -3.47036 38962 ft 413 kts 218°
2026-05-03 20:39 40.34952 -3.51266 38963 ft 413 kts 218°
2026-05-03 20:39 40.30194 -3.55495 38967 ft 413 kts 218°
2026-05-03 20:40 40.25436 -3.59717 38970 ft 413 kts 218°
2026-05-03 20:40 40.20680 -3.63931 38967 ft 413 kts 218°
2026-05-03 20:41 40.15927 -3.68136 38985 ft 412 kts 218°
2026-05-03 20:41 40.11177 -3.72329 38988 ft 412 kts 218°
2026-05-03 20:42 40.07233 -3.75802 38975 ft 412 kts 218°
2026-05-03 20:42 40.02479 -3.79981 38980 ft 412 kts 218°
2026-05-03 20:43 39.97726 -3.84155 38985 ft 412 kts 218°
2026-05-03 20:43 39.92982 -3.88313 38970 ft 410 kts 218°
2026-05-03 20:44 39.88242 -3.92462 38977 ft 409 kts 218°
2026-05-03 20:44 39.83517 -3.96592 38978 ft 409 kts 218°
2026-05-03 20:45 39.78792 -4.00715 38983 ft 409 kts 218°
2026-05-03 20:45 39.74066 -4.04831 38988 ft 409 kts 218°
2026-05-03 20:46 39.69371 -4.08918 38981 ft 408 kts 218°
2026-05-03 20:46 39.64653 -4.13026 38986 ft 408 kts 218°
2026-05-03 20:47 39.59941 -4.17123 38989 ft 408 kts 218°
2026-05-03 20:47 39.55223 -4.21219 38997 ft 408 kts 218°
2026-05-03 20:48 39.50502 -4.25310 38998 ft 408 kts 218°
2026-05-03 20:48 39.45790 -4.29386 38983 ft 406 kts 218°
2026-05-03 20:49 39.41093 -4.33444 38989 ft 405 kts 218°
2026-05-03 20:49 39.36409 -4.37484 39002 ft 405 kts 218°
2026-05-03 20:50 39.31722 -4.41520 38994 ft 405 kts 218°
2026-05-03 20:50 39.27035 -4.45549 38997 ft 404 kts 218°
2026-05-03 20:51 39.22096 -4.49070 39000 ft 411 kts 207°
2026-05-03 20:51 39.16508 -4.50986 39004 ft 421 kts 197°
2026-05-03 20:52 39.10697 -4.52143 39005 ft 421 kts 196°
2026-05-03 20:52 39.04910 -4.53309 39008 ft 421 kts 197°
2026-05-03 20:53 38.99135 -4.54508 39001 ft 420 kts 197°
2026-05-03 20:53 38.93366 -4.55710 39005 ft 420 kts 197°
2026-05-03 20:54 38.87606 -4.56916 39003 ft 419 kts 197°
2026-05-03 20:54 38.79000 -4.58720 38987 ft 420 kts 197°
2026-05-03 20:55 38.73240 -4.59926 38993 ft 420 kts 197°
2026-05-03 20:55 38.67469 -4.61131 39006 ft 420 kts 197°
2026-05-03 20:56 38.61700 -4.62334 39004 ft 420 kts 197°
2026-05-03 20:56 38.55928 -4.63534 38983 ft 420 kts 198°
2026-05-03 20:57 38.50164 -4.64731 38995 ft 419 kts 198°
2026-05-03 20:57 38.44408 -4.65925 39007 ft 419 kts 198°
2026-05-03 20:58 38.38658 -4.67116 39009 ft 419 kts 198°
2026-05-03 20:58 38.32907 -4.68305 39008 ft 419 kts 198°
2026-05-03 20:59 38.27156 -4.69486 39011 ft 419 kts 198°
2026-05-03 20:59 38.21397 -4.70654 39010 ft 419 kts 198°
2026-05-03 21:00 38.16602 -4.71625 39006 ft 419 kts 198°
2026-05-03 21:00 38.09868 -4.72990 39016 ft 419 kts 198°
2026-05-03 21:01 38.06962 -4.73582 38538 ft 425 kts 198°
2026-05-03 21:01 38.04070 -4.74164 38013 ft 418 kts 198°
2026-05-03 21:01 38.01192 -4.74744 37257 ft 418 kts 198°
2026-05-03 21:01 37.98335 -4.75320 36574 ft 416 kts 198°
2026-05-03 21:02 37.95480 -4.75896 35858 ft 415 kts 198°
2026-05-03 21:02 37.92660 -4.76466 35087 ft 416 kts 198°
2026-05-03 21:02 37.89765 -4.77052 34300 ft 417 kts 198°
2026-05-03 21:02 37.86935 -4.77623 33423 ft 418 kts 197°
2026-05-03 21:03 37.84057 -4.78203 32459 ft 419 kts 197°
2026-05-03 21:03 37.81175 -4.78782 31561 ft 420 kts 197°
2026-05-03 21:03 37.78382 -4.79687 30597 ft 409 kts 211°
2026-05-03 21:03 37.75937 -4.81429 29605 ft 401 kts 220°
2026-05-03 21:04 37.73688 -4.83521 28458 ft 407 kts 214°
2026-05-03 21:04 37.71045 -4.84692 28396 ft 402 kts 198°
2026-05-03 21:04 37.68259 -4.85012 28116 ft 402 kts 189°
2026-05-03 21:04 37.65405 -4.84970 27865 ft 420 kts 185°
2026-05-03 21:05 37.62419 -4.84455 27606 ft 447 kts 174°
2026-05-03 21:05 37.59367 -4.83385 27355 ft 463 kts 171°
2026-05-03 21:05 37.56268 -4.82148 27103 ft 471 kts 169°
2026-05-03 21:05 37.53140 -4.80841 26847 ft 474 kts 169°
2026-05-03 21:06 37.50022 -4.79529 26600 ft 472 kts 169°
2026-05-03 21:06 37.46896 -4.78232 26350 ft 472 kts 169°
2026-05-03 21:06 37.43772 -4.76959 26102 ft 473 kts 169°
2026-05-03 21:06 37.40636 -4.75701 25864 ft 473 kts 169°
2026-05-03 21:07 37.37492 -4.74452 25594 ft 473 kts 169°
2026-05-03 21:07 37.34360 -4.73214 25343 ft 471 kts 169°
2026-05-03 21:07 37.31242 -4.71984 25119 ft 469 kts 169°
2026-05-03 21:07 37.28133 -4.70758 24787 ft 465 kts 169°
2026-05-03 21:08 37.25096 -4.69561 23854 ft 461 kts 168°
2026-05-03 21:08 37.22060 -4.68363 22862 ft 454 kts 168°
2026-05-03 21:08 37.19067 -4.67183 21916 ft 447 kts 168°
2026-05-03 21:08 37.16086 -4.66008 20988 ft 440 kts 168°
2026-05-03 21:09 37.13225 -4.64883 20103 ft 434 kts 168°
2026-05-03 21:09 37.10363 -4.63760 19235 ft 427 kts 168°
2026-05-03 21:09 37.07545 -4.62655 18377 ft 422 kts 168°
2026-05-03 21:09 37.04752 -4.61562 17391 ft 418 kts 168°
2026-05-03 21:10 37.01994 -4.60482 16482 ft 412 kts 168°
2026-05-03 21:10 36.99280 -4.59419 15617 ft 406 kts 168°
2026-05-03 21:10 36.96596 -4.58370 14745 ft 401 kts 168°
2026-05-03 21:10 36.93946 -4.57334 13902 ft 397 kts 168°
2026-05-03 21:11 36.91324 -4.56312 12948 ft 394 kts 168°
2026-05-03 21:11 36.88722 -4.55298 12073 ft 389 kts 168°
2026-05-03 21:11 36.86157 -4.54297 11245 ft 384 kts 167°
2026-05-03 21:11 36.83631 -4.53312 10745 ft 371 kts 167°
2026-05-03 21:12 36.81243 -4.52376 10573 ft 350 kts 167°
2026-05-03 21:12 36.78976 -4.51489 10418 ft 333 kts 168°
2026-05-03 21:12 36.76814 -4.50645 10268 ft 318 kts 168°
2026-05-03 21:12 36.74757 -4.49845 10130 ft 302 kts 168°
2026-05-03 21:13 36.72760 -4.49072 10024 ft 302 kts 168°
2026-05-03 21:13 36.70630 -4.48261 9596 ft 334 kts 167°
2026-05-03 21:13 36.68376 -4.47396 9114 ft 341 kts 167°
2026-05-03 21:13 36.66122 -4.46520 8615 ft 336 kts 166°
2026-05-03 21:14 36.63909 -4.45657 8147 ft 329 kts 166°
2026-05-03 21:14 36.61781 -4.44828 7691 ft 318 kts 166°
2026-05-03 21:14 36.59725 -4.44028 7423 ft 298 kts 166°
2026-05-03 21:14 36.57817 -4.43278 7281 ft 277 kts 166°
2026-05-03 21:15 36.56002 -4.42553 6983 ft 265 kts 166°
2026-05-03 21:15 36.54318 -4.41878 6835 ft 249 kts 166°
2026-05-03 21:15 36.52729 -4.41234 6712 ft 233 kts 166°
2026-05-03 21:15 36.51267 -4.40511 6580 ft 222 kts 149°
2026-05-03 21:16 36.50271 -4.39097 6462 ft 213 kts 123°
2026-05-03 21:16 36.49604 -4.37511 6209 ft 204 kts 120°
2026-05-03 21:16 36.48967 -4.35928 5769 ft 205 kts 120°
2026-05-03 21:16 36.48328 -4.34342 5341 ft 205 kts 120°
2026-05-03 21:17 36.47688 -4.32762 4995 ft 201 kts 120°
2026-05-03 21:17 36.47280 -4.31761 4898 ft 191 kts 120°
2026-05-03 21:17 36.47066 -4.29702 4439 ft 186 kts 61°
2026-05-03 21:17 36.47983 -4.28696 4021 ft 176 kts 14°
2026-05-03 21:18 36.49138 -4.28480 3854 ft 163 kts 348°
2026-05-03 21:18 36.50197 -4.28921 3781 ft 162 kts 323°
2026-05-03 21:18 36.51156 -4.29678 3718 ft 166 kts 324°
2026-05-03 21:18 36.52153 -4.30469 3644 ft 177 kts 323°
2026-05-03 21:19 36.53226 -4.31326 3573 ft 187 kts 323°
2026-05-03 21:19 36.54336 -4.32213 3420 ft 193 kts 324°
2026-05-03 21:19 36.55446 -4.33125 3193 ft 187 kts 318°
2026-05-03 21:19 36.56345 -4.34222 2993 ft 182 kts 309°
2026-05-03 21:20 36.57191 -4.35411 2754 ft 179 kts 308°
2026-05-03 21:20 36.58002 -4.36559 2519 ft 174 kts 308°
2026-05-03 21:20 36.58786 -4.37665 2294 ft 166 kts 308°
2026-05-03 21:20 36.59511 -4.38684 2087 ft 153 kts 308°
2026-05-03 21:21 36.60198 -4.39652 1870 ft 143 kts 308°
2026-05-03 21:21 36.60852 -4.40572 1736 ft 140 kts 308°
2026-05-03 21:21 36.61476 -4.41450 1519 ft 132 kts 307°
2026-05-03 21:21 36.62082 -4.42303 1344 ft 132 kts 307°
2026-05-03 21:22 36.62675 -4.43137 1176 ft 129 kts 307°
2026-05-03 21:22 36.63270 -4.43975 1008 ft 129 kts 307°
2026-05-03 21:22 36.63872 -4.44823 857 ft 133 kts 308°
2026-05-03 21:22 36.64498 -4.45700 675 ft 134 kts 309°
2026-05-03 21:23 36.65099 -4.46547 509 ft 133 kts 309°
2026-05-03 21:23 36.65706 -4.47413 306 ft 132 kts 311°
2026-05-03 21:23 36.66320 -4.48278 143 ft 134 kts 311°
2026-05-03 21:23 36.66927 -4.49118 47 ft 114 kts 311°
2026-05-03 21:24 36.67325 -4.49672 46 ft 68 kts 311°
2026-05-03 21:24 36.67614 -4.50074 50 ft 44 kts 314°
2026-05-03 21:24 36.67794 -4.50216 48 ft 22 kts 338°
2026-05-03 21:24 36.67881 -4.50209 46 ft 13 kts 54°
2026-05-03 21:25 36.67846 -4.50115 48 ft 13 kts 130°
2026-05-03 21:25 36.67789 -4.50033 48 ft 12 kts 130°
2026-05-03 21:25 36.67732 -4.49953 48 ft 12 kts 131°
2026-05-03 21:25 36.67677 -4.49876 48 ft 12 kts 133°
2026-05-03 21:26 36.67623 -4.49801 48 ft 11 kts 131°
2026-05-03 21:26 36.67572 -4.49728 48 ft 8 kts 130°
2026-05-03 21:26 36.67565 -4.49670 47 ft 7 kts 62°
2026-05-03 21:26 36.67601 -4.49628 47 ft 7 kts 40°
2026-05-03 21:27 36.67644 -4.49602 48 ft 7 kts
2026-05-03 21:27 36.67682 -4.49570 48 ft 7 kts 42°
2026-05-03 21:27 36.67709 -4.49541 48 ft 0 kts 41°